Location: Helsinki
(60.1699°N, 24.9384°E)
Time: 15:36:24
(UTC+02:00)

S-56A Canister/Altair - Pass Details

Date: 04 November 2020
Orbit: 633 x 2500 km, 38.9° (Epoch: 29 November)

Event Time Altitude Azimuth Distance (km) Brightness Sun altitude
Rises 07:27:41 0° 233° (SW) 3,413 10.6 -3.5°
Reaches altitude 10° 07:33:00 10° 193° (SSW) 2,893 10.7 -2.9°
Maximum altitude 07:33:55 10° 185° (S) 2,949 10.8 -2.8°
Drops below altitude 10° 07:34:53 10° 177° (S) 3,053 11.0 -2.7°
Sets 07:41:54 0° 141° (SE) 4,630 13.0 -1.9°
